Find Starlink 30861

NORAD ID: 58230 Int'l Des: 2023-171 Owner: SPXS Country: US Constellation: starlink operational
LEOCIRCULAR

实时位置

正在加载3D地球...

关于 Starlink 30861

正在加载描述...

即将过境

Passes for default location (London). Set your location on the main map for personalized predictions.

高度历史

Loading altitude history...

两行轨道根数

1 58230U 23171A 26126.89466911 .00036839 00000-0 13626-2 0 9992
2 58230 42.9963 317.5933 0005882 266.2833 93.7346 15.27055180138623
Epoch: May 6, 2026 • Age: 12 hours

当前状态

高度 484.7 km
速度 7.62 km/s
星下点 -7.36°S, 138.11°E
发射日期 Nov 8, 2023
运行时间 2.4 years
类型 internet

技术详情

分类 Payload
质量 730.00 kg
干质量 700.00 kg
总质量 730.00 kg
长度 0.30 m
直径 4.10 m
跨度 29.00 m
形状 Box + pan
制造商 SPXS
平台类型 Starlink V2M
阶段状态 In Orbit
所有者/国家 SPXS/US

Most Searched